User: anonymous   Login
Location: Brno
(49.2000°N, 16.6330°E)
Time: 07:17:54
(UTC+01:00)
Language:

RESURS DK-1 - Orbit

View from above orbital plane
View from above orbital plane
View from above satellite
View from above satellite

Ground track
Ground track

The orbit data is extracted from the following two-line orbital elements,

1 29228U 06021A   17345.83021688  .00000150  00000-0  18695-4 0  9997
2 29228  69.9356   6.0854 0001992  33.2512 326.8774 15.02259206634779
Epoch (UTC): 11 December 2017 19:55:30
Eccentricity: 0.0001992
inclination: 69.9356°
perigee height: 558 km
apogee height: 561 km
right ascension of ascending node: 6.0854°
argument of perigee: 33.2512°
revolutions per day: 15.02259206
mean anomaly at epoch: 326.8774°
orbit number at epoch: 63477

The dashed part of the orbit path shows where the satellite is in the earth's shadow,  

DLR